| time (UTC) | temp C | wind direction | speed KPH | gust KPH | rain 1hr cm | rain 24hr cm | rain mn cm | humidity % | barometer mb |
| 20260901073901 | 25 | 235 | 8.0 | 14.5 | 0.00 | 0.03 | 0.00 | 91 | 1011.9 |
| 20260901072402 | 24 | 238 | 9.7 | 16.1 | 0.00 | 0.03 | 0.00 | 94 | 1011.9 |
| 20260901070901 | 23 | 241 | 14.5 | 19.3 | 0.00 | 0.03 | 0.00 | 95 | 1011.9 |
| 20260901065401 | 23 | 223 | 4.8 | 14.5 | 0.00 | 0.03 | 0.00 | 98 | 1012.2 |
| 20260901063901 | 23 | 237 | 9.7 | 14.5 | 0.00 | 0.03 | 0.00 | 98 | 1012.2 |
| 20260901055401 | 23 | 230 | 9.7 | 12.9 | 0.00 | 0.03 | 0.00 | 97 | 1012.5 |
| 20260901052405 | 23 | 228 | 9.7 | 12.9 | 0.00 | 0.03 | 0.00 | 97 | 1012.5 |
| 20260901050903 | 23 | 240 | 9.7 | 11.3 | 0.00 | 0.03 | 0.00 | 96 | 1012.5 |
| 20260901045401 | 23 | 238 | 8.0 | 12.9 | 0.00 | 0.03 | 0.00 | 95 | 1012.5 |
| 20260901043902 | 23 | 231 | 8.0 | 11.3 | 0.00 | 0.03 | 0.00 | 96 | 1012.5 |
| 20260901040901 | 23 | 229 | 8.0 | 11.3 | 0.00 | 0.03 | 0.00 | 94 | 1012.9 |
| 20260901035401 | 23 | 228 | 4.8 | 11.3 | 0.00 | 0.03 | 0.03 | 96 | 1012.9 |
| 20260901033901 | 23 | 232 | 4.8 | 9.7 | 0.00 | 0.03 | 0.03 | 96 | 1012.9 |
| 20260901025401 | 23 | 229 | 4.8 | 8.0 | 0.00 | 0.03 | 0.03 | 90 | 1012.9 |
| 20260901023901 | 23 | 226 | 4.8 | 8.0 | 0.00 | 0.03 | 0.03 | 88 | 1013.2 |
| 20260901020900 | 23 | 223 | 4.8 | 9.7 | 0.00 | 0.03 | 0.03 | 84 | 1013.2 |
| 20260901015401 | 23 | 231 | 9.7 | 11.3 | 0.00 | 0.03 | 0.03 | 88 | 1013.2 |
| 20260901013901 | 23 | 232 | 8.0 | 12.9 | 0.00 | 0.03 | 0.03 | 92 | 1012.9 |
| 20260901012402 | 23 | 241 | 11.3 | 14.5 | 0.00 | 0.03 | 0.03 | 93 | 1012.9 |
| 20260901010901 | 23 | 246 | 9.7 | 11.3 | 0.00 | 0.03 | 0.03 | 91 | 1013.2 |
| 20260901005403 | 23 | 237 | 4.8 | 9.7 | 0.00 | 0.03 | 0.03 | 94 | 1013.2 |
| 20260831225401 | 23 | 213 | 1.6 | 3.2 | 0.00 | 0.10 | 0.03 | 95 | 1013.9 |
| 20260831223901 | 23 | 232 | 4.8 | 9.7 | 0.00 | 0.10 | 0.03 | 95 | 1013.5 |
| 20260831222402 | 23 | 219 | 4.8 | 8.0 | 0.00 | 0.10 | 0.03 | 95 | 1013.5 |
| 20260831220902 | 23 | 246 | 9.7 | 12.9 | 0.00 | 0.10 | 0.03 | 95 | 1013.5 |
| 20260831215401 | 23 | 238 | 8.0 | 11.3 | 0.00 | 0.10 | 0.03 | 95 | 1013.9 |
| 20260831213901 | 23 | 240 | 8.0 | 11.3 | 0.00 | 0.10 | 0.03 | 95 | 1013.9 |
| 20260831212401 | 24 | 225 | 4.8 | 9.7 | 0.00 | 0.10 | 0.03 | 96 | 1014.2 |
| 20260831210901 | 24 | 217 | 3.2 | 4.8 | 0.00 | 0.10 | 0.03 | 95 | 1014.6 |
| 20260831205402 | 24 | 210 | 3.2 | 4.8 | 0.00 | 0.10 | 0.03 | 95 | 1014.9 |
| 20260831202401 | 25 | 212 | 1.6 | 3.2 | 0.00 | 0.13 | 0.03 | 93 | 1014.9 |
| 20260831200901 | 24 | 205 | 1.6 | 3.2 | 0.00 | 0.13 | 0.03 | 93 | 1014.9 |
| 20260831193901 | 25 | 199 | 0.0 | 1.6 | 0.00 | 0.13 | 0.03 | 92 | 1015.6 |
| 20260831192401 | 25 | 176 | 3.2 | 8.0 | 0.00 | 0.13 | 0.03 | 93 | 1014.9 |
| 20260831190901 | 25 | 178 | 3.2 | 4.8 | 0.00 | 0.13 | 0.03 | 92 | 1015.1 |
| 20260831185402 | 25 | 203 | 1.6 | 4.8 | 0.03 | 0.13 | 0.03 | 91 | 1014.9 |
| 20260831183902 | 25 | 214 | 4.8 | 8.0 | 0.03 | 0.13 | 0.03 | 93 | 1015.2 |
| 20260831182441 | 24 | 213 | 3.2 | 4.8 | 0.03 | 0.13 | 0.03 | 95 | 1014.9 |
| 20260831180939 | 23 | 203 | 1.6 | 3.2 | 0.03 | 0.13 | 0.03 | 95 | 1014.6 |
| 20260831175402 | 25 | 216 | 1.6 | 4.8 | 0.00 | 0.10 | 0.00 | 91 | 1015.2 |
| 20260831173900 | 26 | 222 | 3.2 | 8.0 | 0.00 | 0.10 | 0.00 | 86 | 1015.2 |
| 20260831172401 | 25 | 225 | 3.2 | 4.8 | 0.00 | 0.10 | 0.00 | 89 | 1015.6 |
| 20260831170900 | 24 | 221 | 3.2 | 4.8 | 0.00 | 0.10 | 0.00 | 92 | 1015.6 |
| 20260831165401 | 24 | 228 | 4.8 | 9.7 | 0.00 | 0.10 | 0.00 | 91 | 1015.6 |
| 20260831163900 | 24 | 215 | 1.6 | 8.0 | 0.00 | 0.13 | 0.00 | 91 | 1015.9 |
| 20260831162403 | 23 | 222 | 3.2 | 9.7 | 0.00 | 0.13 | 0.00 | 91 | 1015.6 |
| 20260831160900 | 23 | 234 | 4.8 | 8.0 | 0.00 | 0.15 | 0.00 | 93 | 1015.6 |
| 20260831155401 | 24 | 234 | 9.7 | 11.3 | 0.00 | 0.15 | 0.00 | 93 | 1015.6 |
| 20260831153901 | 23 | 244 | 4.8 | 11.3 | 0.00 | 0.18 | 0.00 | 95 | 1015.6 |
| 20260831145400 | 23 | 236 | 8.0 | 11.3 | 0.00 | 0.25 | 0.00 | 97 | 1015.2 |
| 20260831143901 | 23 | 245 | 8.0 | 11.3 | 0.00 | 0.28 | 0.00 | 96 | 1015.6 |
| 20260831142401 | 23 | 226 | 4.8 | 11.3 | 0.00 | 0.30 | 0.00 | 95 | 1015.6 |
| 20260831140900 | 23 | 254 | 12.9 | 14.5 | 0.00 | 0.30 | 0.00 | 96 | 1015.2 |
| 20260831135401 | 23 | 234 | 9.7 | 11.3 | 0.00 | 0.30 | 0.00 | 96 | 1014.9 |
| 20260831133859 | 23 | 242 | 4.8 | 9.7 | 0.00 | 0.30 | 0.00 | 97 | 1015.2 |
| 20260831132401 | 23 | 221 | 4.8 | 8.0 | 0.00 | 0.33 | 0.00 | 98 | 1014.9 |
| 20260831130901 | 22 | 221 | 4.8 | 8.0 | 0.00 | 0.33 | 0.00 | 98 | 1015.6 |
| 20260831125401 | 22 | 210 | 4.8 | 8.0 | 0.00 | 0.33 | 0.00 | 99 | 1015.6 |
| 20260831123902 | 22 | 224 | 4.8 | 8.0 | 0.00 | 0.33 | 0.00 | 99 | 1015.6 |
| 20260831122400 | 22 | 228 | 4.8 | 11.3 | 0.00 | 0.33 | 0.00 | 99 | 1015.6 |
| 20260831113900 | 22 | 231 | 4.8 | 4.8 | 0.00 | 0.33 | 0.00 | 99 | 1014.9 |
| 20260831110900 | 22 | 222 | 3.2 | 3.2 | 0.00 | 0.33 | 0.00 | 99 | 1015.2 |
| 20260831105400 | 22 | 214 | 1.6 | 4.8 | 0.00 | 0.33 | 0.00 | 98 | 1015.0 |
| 20260831103900 | 22 | 224 | 3.2 | 8.0 | 0.00 | 0.33 | 0.00 | 98 | 1015.2 |
| 20260831102400 | 22 | 222 | 3.2 | 9.7 | 0.00 | 0.33 | 0.00 | 98 | 1015.0 |
| 20260831100900 | 22 | 224 | 4.8 | 8.0 | 0.00 | 0.33 | 0.00 | 99 | 1014.9 |
| 20260831095400 | 22 | 221 | 3.2 | 4.8 | 0.00 | 0.33 | 0.00 | 99 | 1014.9 |
| 20260831093901 | 22 | 228 | 3.2 | 8.0 | 0.00 | 0.33 | 0.00 | 99 | 1014.6 |
| 20260831092400 | 22 | 220 | 3.2 | 4.8 | 0.00 | 0.33 | 0.00 | 99 | 1014.9 |
| 20260831085401 | 22 | 232 | 4.8 | 8.0 | 0.00 | 0.33 | 0.00 | 99 | 1014.9 |
| 20260831083901 | 22 | 240 | 8.0 | 11.3 | 0.00 | 0.33 | 0.00 | 99 | 1014.6 |
| 20260831082400 | 22 | 216 | 4.8 | 8.0 | 0.00 | 0.33 | 0.00 | 98 | 1014.9 |
| 20260831080902 | 22 | 216 | 4.8 | 8.0 | 0.00 | 0.33 | 0.00 | 98 | 1014.9 |
| 20260831075400 | 22 | 219 | 3.2 | 4.8 | 0.00 | 0.33 | 0.00 | 98 | 1014.6 |